Regional Weather Roundup
Issued by NWS

Home | Current Version | Previous Version | Text Only | Print | Product List | Glossary Off
Versions: 1 2 3 4 5 6 7 8 9 10 11 12 13 14 15 16 17 18 19 20 21 22 23 24 25 26 27 28 29 30 31 32 33 34 35 36 37 38 39 40 41 42 43 44 45 46 47 48 49 50

575
ASUS45 KBOU 281907
RWRCO

WEATHER ROUNDUP FOR COLORADO
NATIONAL WEATHER SERVICE DENVER/BOULDER CO
100 PM MDT WED JUN 28 2017

NOTE: "FAIR" INDICATES FEW OR NO CLOUDS BELOW 12000 FEET WITH NO
SIGNIFICANT WEATHER AND/OR OBSTRUCTIONS TO VISIBILITY.

COZ001>005-013-030-031-282000-
...NORTHWEST COLORADO...

CITY           SKY/WX    TMP DP  RH WIND       PRES   REMARKS
CRAIG          FAIR      83  23  11 VRB5      29.97F
HAYDEN         FAIR      79  28  15 W13       30.00F
MEEKER         FAIR      81  27  14 S7        29.96F
RABBIT EARS PA FAIR      61  30  31 W7G17     30.29F
STEAMBOAT SPGS FAIR      76  31  19 W10       30.02F
WALDEN         FAIR      75  21  13 SW17      30.11F
$$

COZ006>008-011-282000-
...WEST CENTRAL VALLEYS...

CITY           SKY/WX    TMP DP  RH WIND       PRES   REMARKS
GRAND JUNCTION FAIR      92  28  10 W9        29.87F
MONTROSE       FAIR      88  21   8 SW17G31   29.96F
EAGLE          MOSUNNY   82  32  16 MISG      30.00F
RIFLE          FAIR      89  24   9 W21       29.90F
DELTA          FAIR      92  26   9 S5        29.91F
NUCLA          NOT AVBL
$$

COZ017>023-064>068-282000-
...SOUTHWEST COLORADO...

CITY           SKY/WX    TMP DP  RH WIND       PRES   REMARKS
DURANGO        FAIR      83  18   9 SW10      30.09F
CORTEZ         FAIR      88  12   6 W10G23    30.03F
PAGOSA SPRINGS FAIR      78  15   9 SW10G18   30.17F
TELLURIDE      FAIR      71  19  13 S6        30.26S
WOLF CREEK PAS FAIR      55  23  28 SW21G31   30.50S
$$

COZ009-010-012-014-032>034-037-058>063-282000-
...CENTRAL COLORADO...

CITY           SKY/WX    TMP DP  RH WIND       PRES   REMARKS
ASPEN          FAIR      79  19  10 VRB6      30.07F
BUENA VISTA    FAIR      80  15   8 SW20G25   30.09F
COPPER MTN     FAIR      63  16  16 W10G31    30.42R
BERTHOUD PASS  PTSUNNY   50  37  62 MISG      30.42F
COTTONWOOD PAS FAIR      73   1   6 SW21G33   30.24F
GUNNISON       FAIR      78  27  15 W20G28    30.09F
KREMMLING      FAIR      81  23  12 NW14G22   30.04F
LEADVILLE      PTSUNNY   66  16  14 W14G25    30.23R
MONARCH PASS   FAIR      61  18  18 W31G49    30.52F
SALIDA         FAIR      85  17   8 S15       30.12F
SUNLIGHT       FAIR      63  30  29 SW8G16    30.35S
WILKERSON PASS FAIR      68  12  11 SW17G28   30.36F
$$

COZ069>075-282000-
...SAN LUIS VALLEY/SANGRE DE CRISTO MOUNTAINS...

CITY           SKY/WX    TMP DP  RH WIND       PRES   REMARKS
ALAMOSA        FAIR      85  13   7 SW21G29   30.08F
DEL NORTE      FAIR      80  17   9 SW22G29   30.11F
LA VETA PASS   FAIR      75  23  14 MISG      30.42F
SAGUACHE       FAIR      79  27  14 S9        30.10F
$$

COZ035-036-038>040-282000-
...NORTHERN COLORADO FRONT RANGE...

CITY           SKY/WX    TMP DP  RH WIND       PRES   REMARKS
DENVER INTL AP PTSUNNY   85  39  19 E9G25     29.89F
DMNS CITY PARK   N/A     81  40  22 NE7G20    29.87F
AURORA         PTSUNNY   83  38  20 N5        29.91F
FRONT RANGE AP FAIR      88  37  16 E12G21    29.91F
ERIE MUNI ARPT FAIR      83  36  18 SE7       29.89F
BOULDER MUN AP FAIR      82  41  23 E5        29.90F
CENTENNIAL     PTSUNNY   86  34  15 CALM      29.90F
BROOMFIELD     FAIR      81  37  21 NE6       29.93F
FORT COLLINS   FAIR      83  43  24 S13G21    29.89F
LONGMONT       FAIR      86  39  19 S3        29.90F
$$

COZ041-046-047-076>085-087-088-282000-
...PIKES PEAK/PALMER DIVIDE AND SOUTHERN FOOTHILLS...

CITY           SKY/WX    TMP DP  RH WIND       PRES   REMARKS
COLO. SPRINGS  FAIR      83  35  18 S22G35    29.98F
A. F. ACADEMY  FAIR      80  36  20 SE24G30   29.98F
SCHRIEVER AFB  FAIR      81  34  18 S20G26    29.99F
CHEYENNE MTN   FAIR      76  35  22 S16G26    29.98F
ELLICOTT       FAIR     N/A N/A N/A S14G26    29.98F
FALCON           N/A     81  31  16 S21G32    30.05F
FORT CARSON    FAIR      84  36  18 S17       29.96F
LIMON          FAIR      84  38  19 SW8G17    29.93F
MONUMENT HILL  FAIR      79  34  19 S20G26    30.03F
CANON CITY     SUNNY     86  43  22 E10       29.93F
WALSENBURG     FAIR      88  37  16 SE15      29.97F
TRINIDAD       FAIR      83  38  20 SE6       29.97F
$$

COZ042>045-048>051-090-091-282000-
...NORTHEAST COLORADO...

CITY           SKY/WX    TMP DP  RH WIND       PRES   REMARKS
GREELEY ARPT   FAIR      84  43  23 SE10      29.88F
AKRON          FAIR      83  38  20 VRB7      29.89F
BURLINGTON     FAIR      86  44  23 VRB5      29.89F
WRAY           FAIR      86  43  22 CALM      29.85F
YUMA           FAIR      81  43  26 CALM      29.86F
STERLING       FAIR      86  45  23 S9        29.83F
HOLYOKE        NOT AVBL
FORT MORGAN    FAIR      85  40  20 SE8       29.88F
$$

COZ086-089-092>099-282000-
...SOUTHEAST COLORADO...

CITY           SKY/WX    TMP DP  RH WIND       PRES   REMARKS
PUEBLO         FAIR      88  40  18 SE12G20   29.89F
LA JUNTA       FAIR      87  44  22 E6        29.88F
LAMAR          FAIR      91  44  19 VRB7      29.83F
SPRINGFIELD      N/A     89  47  23 VRB6G21   29.88S
$$




USA.gov is the U.S. government's official web portal to all federal, state and local government web resources and services.